map of PHE home
PHE - Airport
Location
City:  Port Hedland, Western Australia, Australia
ICAO:YPPD
IATA:PHE

Details
Type:Airport (Aerodrome, Airfield)
Use:Public/Civil, International (customs port of entry)
Latitude:2022'40"S (-20.377777)
Longitude:11837'35"E (118.626389)
Datum:WGS 1984
Elevation:33 ft (10 m)
Variation:1.21E (WMM2015 magnetic declination)
-0.06 annual change
Runways:2
Longest:8202 × 148 ft (2500 × 45 m), paved

Time
Time Zone:UTC+8
Local Time:

Weather
METAR:YPPD 160800Z AUTO 30024KT 9999 // NCD 29/20 Q1003
TAF:YPPD 160508Z 1606/1706 30024G34KT CAVOK
FM161400 26014KT CAVOK
BECMG 1703/1705 29015KT CAVOK

Related Locations
Nearby:
Farthest:AXA: 12250 mi / 19715 km
The Valley [Clayton J. Lloyd Intl (Anguilla Wallblake Airport)], Anguilla, AI

Find:

   beyond  
but within

Other Information
Maps:
NOTAMs:
Links:
Sources:

  
  • flag of Australia
  • flag of Western Australia
  

Sectional Chart

Flight Planning
at skyvector.com

Satellite Image

Google Maps Satellite view

 

Copyright © 2004-2018 Karl L. Swartz. All rights reserved.
The Great Circle Mapper name and logo are trademarks of the Great Circle Mapper.
All other trademarks mentioned herein belong to their respective owners.
Please see credits for attibutions and further copyright information.

  Follow gcmap on Facebook Follow gcmap on Twitter Follow gcmap on Google+ GCmap on LinkedIn

hCard Microformat

Geo Microformat